Skip Navigation LinksHome page > Weather > Current weather Skip Navigation Links

Current Weather

Jakutsk, Russia

For information only: do not use for flight planning or navigation.
Latest weather
Observation time Wednesday, February 22, 2017 5:00 PM JST
Local time Wednesday, February 22, 2017 5:23 PM JST
Flight conditions Visual Meteorological Conditions
Winds
Wind direction North-Northeast (20°)
Wind speed 2 mph
Visibility 6.2 mi.
Sky condition
Ceiling unlimited
Sky clear
Temperature -27°F
Dewpoint -35°F
Altimeter 30.03 in.Hg
Precipitation
QF 5:34 AM
Derived measurements
Relative humidity 67%
Wind chill -27°F
Density altitude -6133 ft.
Remarks
Ceiling and visibility OK.
No significant changes expected in the next two hours.
METAR UEEE 220800Z 02001MPS CAVOK M33/M37 Q1017 R23L/490150 NOSIG RMK QFE754

Settings

Location code

InnerDrive.Weather 4.0.6144.1 Release CLR 4.0.30319.34209
Copyright ©2015 Inner Drive Technology. All rights reserved. Portions Copyright ©1986-2015 David Braverman.

Find weather

Site navigation


Skip Navigation Links

Place info

Page info

PayPal - The safer, easier way to pay online!

Return home.

Copyright ©2017 Inner Drive Technology. Purveyors of fine, hand-crafted computer software. Page printed 2017-02-22T08:23:04 UTC.